Location: Poughquag
(41.6090°N, 73.6820°W)
Time: 14:55:59
(UTC-04:00)

Altair - Pass Details

Date: 06 June 2020
Orbit: 1501 x 1683 km, 47.2° (Epoch: 05 July)

Event Time Altitude Azimuth Distance (km) Brightness Sun altitude
Rises 21:47:59 0° 246° (WSW) 4,786 10.4 -12.6°
Reaches altitude 10° 21:51:02 10° 247° (WSW) 3,826 9.8 -13.0°
Maximum altitude 22:00:54 84° 336° (NNW) 1,664 7.7 -14.2°
Drops below altitude 10° 22:11:06 10° 66° (ENE) 3,943 9.5 -15.4°
Sets 22:14:18 0° 67° (ENE) 4,938 10.0 -15.8°
